| time (UTC) | temp C | wind direction | speed KPH | gust KPH | rain 1hr cm | rain 24hr cm | rain mn cm | humidity % | barometer mb |
| 20260503203034 | 29 | 88 | 9.7 | 20.9 | 0.00 | 0.00 | 0.00 | 31 | 1013.2 |
| 20260503201535 | 28 | 72 | 8.0 | 19.3 | 0.00 | 0.00 | 0.00 | 31 | 1013.3 |
| 20260503200038 | 28 | 72 | 6.4 | 20.9 | 0.00 | 0.00 | 0.00 | 32 | 1013.5 |
| 20260503194535 | 27 | 43 | 4.8 | 20.9 | 0.00 | 0.00 | 0.00 | 36 | 1013.7 |
| 20260503193036 | 27 | 314 | 4.8 | 12.9 | 0.00 | 0.00 | 0.00 | 39 | 1013.9 |
| 20260503190031 | 25 | 326 | 4.8 | 12.9 | 0.00 | 0.00 | 0.00 | 43 | 1014.3 |
| 20260503183150 | 23 | 346 | 3.2 | 8.0 | 0.00 | 0.00 | 0.00 | 46 | 1014.7 |
| 20260503181534 | 23 | 339 | 3.2 | 8.0 | 0.00 | 0.00 | 0.00 | 49 | 1014.9 |
| 20260503180031 | 22 | 9 | 1.6 | 8.0 | 0.00 | 0.00 | 0.00 | 50 | 1015.0 |
| 20260503174536 | 21 | 39 | 1.6 | 6.4 | 0.00 | 0.00 | 0.00 | 51 | 1015.2 |
| 20260503173036 | 21 | 10 | 1.6 | 4.8 | 0.00 | 0.00 | 0.00 | 55 | 1015.4 |
| 20260503171533 | 21 | 58 | 1.6 | 6.4 | 0.00 | 0.00 | 0.00 | 58 | 1015.4 |
| 20260503140109 | 10 | 168 | 1.6 | 6.4 | 0.00 | 0.00 | 0.00 | 90 | 1016.0 |
| 20260503081608 | 12 | 215 | 3.2 | 6.4 | 0.00 | 0.00 | 0.00 | 87 | 1015.3 |
| 20260503071532 | 13 | 201 | 1.6 | 3.2 | 0.00 | 0.00 | 0.00 | 88 | 1015.3 |
| 20260503054538 | 15 | 219 | 0.0 | 3.2 | 0.00 | 0.00 | 0.00 | 80 | 1015.1 |
| 20260503050030 | 16 | 204 | 0.0 | 3.2 | 0.00 | 0.00 | 0.00 | 77 | 1015.0 |
| 20260503044608 | 16 | 73 | 1.6 | 6.4 | 0.00 | 0.00 | 0.00 | 74 | 1015.0 |
| 20260503041535 | 17 | 356 | 3.2 | 6.4 | 0.00 | 0.00 | 0.00 | 72 | 1014.6 |
| 20260503040148 | 17 | 318 | 0.0 | 4.8 | 0.00 | 0.00 | 0.00 | 73 | 1014.4 |
| 20260503031535 | 19 | 360 | 0.0 | 4.8 | 0.00 | 0.00 | 0.00 | 65 | 1013.2 |
| 20260503030037 | 20 | 360 | 1.6 | 6.4 | 0.00 | 0.00 | 0.00 | 63 | 1013.0 |
| 20260503024535 | 20 | 34 | 1.6 | 4.8 | 0.00 | 0.00 | 0.00 | 62 | 1012.9 |
| 20260503023036 | 20 | 45 | 0.0 | 4.8 | 0.00 | 0.00 | 0.00 | 61 | 1012.8 |
| 20260503021534 | 21 | 34 | 1.6 | 4.8 | 0.00 | 0.00 | 0.00 | 59 | 1012.7 |
| 20260503020037 | 22 | 360 | 1.6 | 6.4 | 0.00 | 0.00 | 0.00 | 59 | 1012.6 |
| 20260503014534 | 22 | 360 | 0.0 | 3.2 | 0.00 | 0.00 | 0.00 | 58 | 1012.5 |
| 20260503013036 | 22 | 360 | 1.6 | 4.8 | 0.00 | 0.00 | 0.00 | 55 | 1012.6 |
| 20260503011534 | 22 | 360 | 3.2 | 6.4 | 0.00 | 0.00 | 0.00 | 54 | 1012.6 |
| 20260503004535 | 24 | 360 | 1.6 | 4.8 | 0.00 | 0.00 | 0.00 | 50 | 1012.6 |
| 20260502234537 | 25 | 18 | 3.2 | 6.4 | 0.00 | 0.00 | 0.00 | 50 | 1012.9 |
| 20260502233037 | 25 | 27 | 3.2 | 6.4 | 0.00 | 0.00 | 0.00 | 48 | 1013.0 |
| 20260502231536 | 25 | 1 | 3.2 | 9.7 | 0.00 | 0.00 | 0.00 | 49 | 1013.2 |
| 20260502230041 | 25 | 8 | 3.2 | 6.4 | 0.00 | 0.00 | 0.00 | 49 | 1013.4 |
| 20260502223036 | 24 | 17 | 4.8 | 11.3 | 0.00 | 0.00 | 0.00 | 54 | 1013.9 |
| 20260502221619 | 24 | 29 | 4.8 | 11.3 | 0.00 | 0.00 | 0.00 | 54 | 1014.1 |
| 20260502221609 | 24 | 30 | 3.2 | 9.7 | 0.00 | 0.00 | 0.00 | 53 | 1014.4 |
| 20260502214536 | 24 | 302 | 1.6 | 8.0 | 0.00 | 0.00 | 0.00 | 53 | 1014.5 |
| 20260502213035 | 22 | 311 | 1.6 | 8.0 | 0.00 | 0.00 | 0.00 | 57 | 1014.7 |
| 20260502211535 | 21 | 13 | 1.6 | 8.0 | 0.00 | 0.00 | 0.00 | 59 | 1015.0 |
| 20260502204535 | 21 | 48 | 3.2 | 8.0 | 0.00 | 0.00 | 0.00 | 60 | 1015.3 |